Location: Unspecified
(0.0000°N, 0.0000°E)
Time: 18:58:25
(UTC+00:00)

Vanguard 2 Rocket - Pass Details

Date: 27 January 2020
Orbit: 554 x 3327 km, 32.9° (Epoch: 20 February)

Event Time Altitude Azimuth Distance (km) Brightness Sun altitude
Rises 16:54:57 0° 248° (WSW) 7,173 13.2 18.4°
Reaches altitude 10° 17:02:36 10° 231° (SW) 6,284 12.8 16.6°
Maximum altitude 17:14:49 19° 193° (SSW) 5,385 11.4 13.7°
Drops below altitude 10° 17:25:43 10° 155° (SSE) 5,525 10.9 11.1°
Sets 17:31:45 0° 137° (SE) 6,060 10.9 9.7°
